Date,TemperatureHighF,TemperatureAvgF,TemperatureLowF,DewpointHighF,DewpointAvgF,DewpointLowF,HumidityHigh,HumidityAvg,HumidityLow,PressureMaxIn,PressureMinIn,WindSpeedMaxMPH,WindSpeedAvgMPH,GustSpeedMaxMPH,PrecipitationSumIn
2013-6-1,105.2,93.2,78.9,54.6,39.2,23.7,39,18,6,29.73,29.58,18,4,26,0.00
2013-6-2,103.2,90.5,80.8,51.0,42.9,34.6,33,20,10,29.63,29.51,43,13,56,0.00
2013-6-3,98.2,84.5,71.8,51.7,44.4,38.0,41,26,14,29.68,29.55,42,17,46,0.00
2013-6-4,97.4,82.6,68.9,53.2,46.0,30.6,54,32,11,29.75,29.66,56,20,63,0.00
2013-6-5,101.3,86.4,71.8,52.2,42.4,29.5,44,24,9,29.78,29.67,50,19,55,0.00
2013-6-6,104.5,90.7,79.2,50.4,40.9,30.0,28,19,9,29.70,29.60,48,20,56,0.00
2013-6-7,109.1,93.6,80.5,53.2,40.5,26.2,30,17,7,29.66,29.55,38,12,47,0.00
2013-6-8,101.1,89.5,79.6,57.3,51.2,37.4,40,28,14,29.71,29.56,22,6,25,0.00
2013-6-9,97.8,87.0,75.8,59.4,47.8,15.4,42,29,7,29.77,29.67,26,5,34,0.00
2013-6-10,98.1,85.8,74.8,49.3,37.2,24.3,32,19,9,29.75,29.67,48,14,63,0.00
2013-6-11,104.1,88.8,71.7,54.6,38.1,25.3,44,20,7,29.79,29.69,34,12,43,0.00
2013-6-12,102.5,89.9,78.5,52.6,45.2,28.9,38,22,12,29.79,29.69,46,13,53,0.00
2013-6-13,102.3,88.6,74.0,50.8,40.3,28.2,42,20,9,29.81,29.67,54,18,56,0.00
2013-6-14,100.9,87.0,74.1,48.0,39.1,24.8,32,20,7,29.75,29.61,38,11,54,0.00
2013-6-15,99.8,85.2,69.9,48.8,33.2,7.4,40,20,4,29.76,29.66,44,16,52,0.00
2013-6-16,101.6,85.7,70.3,49.9,34.8,4.0,45,20,3,29.83,29.73,45,18,53,0.00
2013-6-17,103.1,89.1,75.4,51.0,39.2,23.9,32,19,7,29.79,29.68,48,15,56,0.00
2013-6-18,101.2,89.4,78.2,49.6,40.0,28.4,31,19,9,29.71,29.59,57,22,64,0.00
2013-6-19,98.5,86.7,73.3,51.8,38.5,25.5,34,20,9,29.66,29.57,52,21,57,0.00
2013-6-20,99.2,86.3,74.2,49.3,41.1,31.0,34,22,10,29.69,29.59,49,17,56,0.00
2013-6-21,98.5,86.4,76.5,49.6,41.2,32.8,34,22,11,29.73,29.62,48,21,55,0.00
2013-6-22,100.1,86.4,73.3,53.0,44.5,35.7,38,25,12,29.73,29.60,48,22,59,0.00
2013-6-23,95.9,84.0,72.8,52.4,47.5,40.7,44,30,15,29.66,29.56,52,23,61,0.00
2013-6-24,90.9,78.3,66.1,55.7,51.4,45.3,61,40,25,29.74,29.59,55,28,60,0.00
2013-6-25,98.6,84.4,69.5,57.2,55.1,52.2,61,39,23,29.82,29.70,51,20,56,0.00
2013-6-26,101.2,91.0,80.1,60.0,56.6,53.2,43,32,21,29.86,29.76,30,8,33,0.00
2013-6-27,105.6,93.6,80.5,59.2,56.3,53.1,43,30,19,29.91,29.78,44,10,51,0.00
2013-6-28,113.2,100.6,88.2,55.9,48.5,37.8,28,18,9,29.82,29.65,55,19,56,0.00
2013-6-29,118.7,105.7,92.6,62.2,43.8,33.7,34,14,6,29.68,29.55,44,13,52,0.00
2013-6-30,110.3,97.6,86.6,63.0,58.1,53.7,35,28,16,29.69,29.54,32,7,40,0.00